Weather History for Summerville, SC

Change the Weather History Date:

Thursday, November 15, 2012

  Actual Average (KCHS) Record (KCHS)
Temperature  
Mean Temperature 46 °F 59 °F  
Max Temperature 50 °F 70 °F 83 °F (1955)
Min Temperature 42 °F 48 °F 27 °F (1969)
Degree Days  
Heating Degree Days 19 7  
Month to date heating degree days 87  
Since 1 July heating degree days 156  
Cooling Degree Days 0 1  
Month to date cooling degree days 20  
Year to date cooling degree days 2284  
Moisture  
Dew Point 45 °F    
Average Humidity 99    
Maximum Humidity 100    
Minimum Humidity 82    
Precipitation  
Precipitation 0.00 in 0.08 in 0.95 in (2012)
Month to date precipitation 1.23  
Year to date precipitation 46.72  
Sea Level Pressure  
Sea Level Pressure 30.23 in    
Wind  
Wind Speed 7 mph (North)    
Max Wind Speed 15 mph    
Max Gust Speed 23 mph    
Visibility 6 miles    
Events Rain , Thunderstorm    
T = Trace of Precipitation, MM = Missing Value Source: NWS Daily Summary

Daily Weather History Graph

Daily Weather History Graph

Search for Another Location

Airport:

Trip Planner

Search our weather history database for the weather conditions in past years. The results will help you decide how hot, cold, wet, or windy it might be!

Date:

Astronomy

Nov. 15, 2012 Rise Set
Actual Time 6:52 AM EST 5:19 PM EST
Civil Twilight 6:25 AM EST 5:45 PM EST
Nautical Twilight 5:56 AM EST 6:15 PM EST
Astronomical Twilight 5:26 AM EST 6:44 PM EST
Moon 8:42 AM EST (11/15) 7:12 PM EST (11/15)
Length of Visible Light 11h 19m
Length of Day
10h 26m
Waxing Crescent, 5% of the Moon is Illuminated
Nov 15
Waxing Crescent
Nov 20
First Quarter
Nov 28
Full
Dec 6
Last Quarter
Dec 13
New

Hourly Weather History & Observations

Time (EST) Temp. Windchill Dew Point Humidity Pressure Visibility Wind Dir Wind Speed Gust Speed Precip Events Conditions
12:15 AM 50.0 °F - 44.6 °F 82% 30.25 in 10.0 mi NE 5.8 mph - N/A   Overcast
12:35 AM 50.0 °F - 44.6 °F 82% 30.24 in 10.0 mi NNE 5.8 mph - N/A   Overcast
12:55 AM 50.0 °F - 46.4 °F 87% 30.23 in 10.0 mi NNE 9.2 mph 16.1 mph N/A   Overcast
1:15 AM 50.0 °F - 46.4 °F 87% 30.22 in 10.0 mi NE 6.9 mph - N/A   Overcast
1:35 AM 50.0 °F - 46.4 °F 87% 30.21 in 10.0 mi NE 6.9 mph - N/A   Drizzle
1:55 AM 48.2 °F - 46.4 °F 93% 30.21 in 7.0 mi NE 3.5 mph - N/A   Overcast
2:15 AM 48.2 °F - 46.4 °F 93% 30.21 in 10.0 mi NE 5.8 mph - N/A   Overcast
2:35 AM 48.2 °F - 46.4 °F 93% 30.21 in 10.0 mi NNE 6.9 mph - N/A   Overcast
2:55 AM 48.2 °F - 46.4 °F 93% 30.20 in 10.0 mi NNE 5.8 mph - N/A   Overcast
3:15 AM 46.4 °F 42.4 °F 46.4 °F 100% 30.20 in 10.0 mi NNE 8.1 mph - N/A   Overcast
3:35 AM 46.4 °F 44.3 °F 46.4 °F 100% 30.20 in 10.0 mi North 4.6 mph - N/A Thunderstorm Unknown
3:55 AM 46.4 °F 42.9 °F 46.4 °F 100% 30.20 in 10.0 mi NNE 6.9 mph - N/A Rain Light Rain
4:15 AM 46.4 °F 43.5 °F 46.4 °F 100% 30.18 in 10.0 mi NNE 5.8 mph - N/A   Overcast
4:35 AM 46.4 °F 42.9 °F 46.4 °F 100% 30.18 in 10.0 mi North 6.9 mph - N/A Thunderstorm Unknown
4:55 AM 46.4 °F 42.9 °F 46.4 °F 100% 30.20 in 10.0 mi North 6.9 mph - N/A   Overcast
5:15 AM 46.4 °F 42.9 °F 46.4 °F 100% 30.22 in 10.0 mi NNW 6.9 mph - N/A   Overcast
5:35 AM 46.4 °F 41.9 °F 46.4 °F 100% 30.22 in 7.0 mi North 9.2 mph - N/A Rain Light Rain
5:55 AM 44.6 °F 40.2 °F 44.6 °F 100% 30.23 in 7.0 mi North 8.1 mph - N/A Rain , Thunderstorm Light Thunderstorms and Rain
6:15 AM 44.6 °F 39.2 °F 44.6 °F 100% 30.23 in 7.0 mi North 10.4 mph 17.3 mph N/A Rain Light Rain
6:35 AM 44.6 °F 39.2 °F 44.6 °F 100% 30.25 in 7.0 mi North 10.4 mph - N/A Rain Rain
6:55 AM 44.6 °F 39.2 °F 44.6 °F 100% 30.24 in 7.0 mi North 10.4 mph 16.1 mph N/A Rain Light Rain
7:15 AM 44.6 °F 39.2 °F 44.6 °F 100% 30.26 in 5.0 mi North 10.4 mph 16.1 mph N/A Rain , Thunderstorm Heavy Thunderstorms and Rain
7:35 AM 44.6 °F 37.8 °F 44.6 °F 100% 30.27 in 7.0 mi NNW 15.0 mph 23.0 mph N/A   Drizzle
7:55 AM 42.8 °F 37.5 °F 42.8 °F 100% 30.25 in 2.0 mi ENE 9.2 mph 17.3 mph N/A Rain Heavy Rain
8:15 AM 42.8 °F 41.1 °F 42.8 °F 100% 30.28 in 0.5 mi NNE 3.5 mph - N/A Thunderstorm Overcast
8:35 AM 42.8 °F 37.0 °F 42.8 °F 100% 30.25 in 3.0 mi NNE 10.4 mph - N/A Rain Rain
8:55 AM 44.6 °F 40.7 °F 44.6 °F 100% 30.24 in 10.0 mi NNE 6.9 mph - N/A Rain Light Rain
9:15 AM 44.6 °F 42.2 °F 44.6 °F 100% 30.25 in 10.0 mi NNE 4.6 mph - N/A Rain Light Rain
9:35 AM 44.6 °F 42.2 °F 44.6 °F 100% 30.24 in 5.0 mi NNE 4.6 mph - N/A Rain Rain
9:55 AM 46.4 °F 43.5 °F 46.4 °F 100% 30.23 in 10.0 mi NNE 5.8 mph - N/A   Overcast
10:15 AM 46.4 °F - 46.4 °F 100% 30.25 in 10.0 mi Calm Calm - N/A Rain , Thunderstorm Light Thunderstorms and Rain
10:35 AM 46.4 °F - 46.4 °F 100% 30.25 in 4.0 mi Calm Calm - N/A Rain Rain
10:55 AM 46.4 °F 42.9 °F 46.4 °F 100% 30.24 in 10.0 mi North 6.9 mph - N/A Rain Light Rain
11:15 AM 46.4 °F 42.4 °F 46.4 °F 100% 30.22 in 10.0 mi NNW 8.1 mph - N/A   Light Drizzle
11:35 AM 46.4 °F 41.9 °F 46.4 °F 100% 30.23 in 10.0 mi NNW 9.2 mph - N/A Rain Rain
11:55 AM 48.2 °F - 48.2 °F 100% 30.22 in 10.0 mi North 8.1 mph - N/A   Light Drizzle
12:15 PM 46.4 °F 41.5 °F 46.4 °F 100% 30.22 in 10.0 mi NNW 10.4 mph 16.1 mph N/A   Overcast
12:35 PM 46.4 °F 42.4 °F 46.4 °F 100% 30.21 in 10.0 mi NNW 8.1 mph - N/A   Overcast
12:55 PM 48.2 °F - 48.2 °F 100% 30.21 in 10.0 mi North 6.9 mph - N/A   Overcast
1:15 PM 48.2 °F - 48.2 °F 100% 30.21 in 10.0 mi NNW 6.9 mph - N/A   Overcast
1:35 PM 48.2 °F - 48.2 °F 100% 30.21 in 10.0 mi NNW 9.2 mph - N/A   Overcast
1:55 PM 48.2 °F - 48.2 °F 100% 30.20 in 7.0 mi NNW 10.4 mph - N/A   Overcast
2:15 PM 46.4 °F 41.9 °F 46.4 °F 100% 30.20 in 4.0 mi North 9.2 mph - N/A   Overcast
2:35 PM 46.4 °F 41.1 °F 46.4 °F 100% 30.20 in 3.0 mi NNW 11.5 mph 16.1 mph N/A   Overcast
2:55 PM 46.4 °F 41.5 °F 46.4 °F 100% 30.20 in 2.0 mi North 10.4 mph 16.1 mph N/A   Overcast
3:15 PM 44.6 °F 39.7 °F 44.6 °F 100% 30.20 in 1.8 mi NNW 9.2 mph - N/A   Overcast
3:35 PM 44.6 °F 39.7 °F 44.6 °F 100% 30.21 in 2.5 mi NNW 9.2 mph 16.1 mph N/A   Overcast
3:55 PM 44.6 °F 40.2 °F 44.6 °F 100% 30.21 in 2.5 mi North 8.1 mph - N/A   Overcast
4:15 PM 44.6 °F 40.2 °F 44.6 °F 100% 30.21 in 1.8 mi NNW 8.1 mph - N/A   Overcast
4:35 PM 44.6 °F 40.2 °F 44.6 °F 100% 30.21 in 1.5 mi North 8.1 mph - N/A   Overcast
4:55 PM 44.6 °F 39.7 °F 44.6 °F 100% 30.21 in 1.5 mi North 9.2 mph - N/A   Overcast
5:15 PM 44.6 °F 40.2 °F 44.6 °F 100% 30.22 in 2.0 mi NNW 8.1 mph - N/A   Overcast
5:35 PM 44.6 °F 41.4 °F 44.6 °F 100% 30.22 in 2.0 mi North 5.8 mph - N/A   Overcast
5:55 PM 44.6 °F 40.2 °F 44.6 °F 100% 30.22 in 2.0 mi North 8.1 mph - N/A   Overcast
6:15 PM 44.6 °F 39.7 °F 44.6 °F 100% 30.23 in 2.0 mi North 9.2 mph - N/A   Overcast
6:35 PM 44.6 °F 40.2 °F 44.6 °F 100% 30.23 in 4.0 mi North 8.1 mph - N/A   Overcast
6:55 PM 44.6 °F 40.7 °F 44.6 °F 100% 30.23 in 3.0 mi North 6.9 mph - N/A   Overcast
7:15 PM 44.6 °F 40.7 °F 44.6 °F 100% 30.24 in 7.0 mi North 6.9 mph - N/A   Overcast
7:35 PM 44.6 °F 39.2 °F 44.6 °F 100% 30.24 in 7.0 mi North 10.4 mph - N/A   Overcast
7:55 PM 44.6 °F 40.2 °F 44.6 °F 100% 30.24 in 7.0 mi North 8.1 mph - N/A   Overcast
8:35 PM 44.6 °F 40.7 °F 44.6 °F 100% 30.24 in 7.0 mi North 6.9 mph - N/A   Overcast
8:55 PM 44.6 °F 41.4 °F 44.6 °F 100% 30.24 in 5.0 mi North 5.8 mph - N/A   Overcast
9:15 PM 44.6 °F 41.4 °F 44.6 °F 100% 30.24 in 3.0 mi North 5.8 mph - N/A   Overcast
9:35 PM 44.6 °F 41.4 °F 44.6 °F 100% 30.25 in 1.5 mi North 5.8 mph - N/A   Overcast
9:55 PM 44.6 °F 41.4 °F 44.6 °F 100% 30.24 in 2.0 mi North 5.8 mph - N/A   Overcast
10:15 PM 44.6 °F 43.1 °F 44.6 °F 100% 30.24 in 2.5 mi North 3.5 mph - N/A   Overcast
10:35 PM 44.6 °F 40.7 °F 44.6 °F 100% 30.24 in 2.5 mi NNW 6.9 mph - N/A   Overcast
10:55 PM 44.6 °F 40.2 °F 44.6 °F 100% 30.23 in 2.5 mi North 8.1 mph - N/A   Overcast
11:15 PM 44.6 °F 39.7 °F 44.6 °F 100% 30.23 in 4.0 mi North 9.2 mph - N/A   Overcast
11:35 PM 44.6 °F 40.7 °F 44.6 °F 100% 30.23 in 3.0 mi North 6.9 mph - N/A   Overcast
11:55 PM 44.6 °F 41.4 °F 44.6 °F 100% 30.23 in 2.5 mi North 5.8 mph - N/A   Overcast